Laurens, SC

8:25 AM EST on November 22, 2017 (GMT -0500)
Laurens

Weather History for KLUX - January, 2013

Change the Weather History Date:

Thursday, January 24, 2013

  Actual Average (KGSP) Record (KGSP)
Temperature  
Mean Temperature 42 °F -  
Max Temperature 53 °F 50 °F 76 °F (1967)
Min Temperature 30 °F 32 °F 9 °F (1963)
Degree Days  
Heating Degree Days 24    
Moisture  
Dew Point 25 °F    
Average Humidity 50    
Maximum Humidity 81    
Minimum Humidity 17    
Precipitation  
Precipitation 0.00 in - - ()
Sea Level Pressure  
Sea Level Pressure 30.21 in    
Wind  
Wind Speed 10 mph (NNW)    
Max Wind Speed 13 mph    
Max Gust Speed 22 mph    
Visibility 10 miles    
Events      
Averages and records for this station are not official NWS values.
T = Trace of Precipitation, MM = Missing Value Source: NWS Daily Summary

Daily Weather History Graph

Daily Weather History Graph

Search for Another Location

Airport or City:

Trip Planner

Search our weather history database for the weather conditions in past years. The results will help you decide how hot, cold, wet, or windy it might be!

Date:

Astronomy

Jan. 24, 2013 Rise Set
Actual Time 7:30 AM EST 5:49 PM EST
Civil Twilight 7:03 AM EST 6:16 PM EST
Nautical Twilight 6:33 AM EST 6:47 PM EST
Astronomical Twilight 6:03 AM EST 7:16 PM EST
Moon 3:52 PM EST (1/24) 5:25 AM EST (1/24)
Length of Visible Light 11h 12m
Length of Day
10h 19m
Waxing Gibbous, 94% of the Moon is Illuminated
Jan 24
Waxing Gibbous
Jan 26
Full
Feb 3
Last Quarter
Feb 10
New
Feb 17
First Quarter

Hourly Weather History & Observations

Time (EST) Temp. Windchill Dew Point Humidity Pressure Visibility Wind Dir Wind Speed Gust Speed Precip Events Conditions
12:15 AM 39.2 °F 33.6 °F 28.4 °F 65% 30.11 in 10.0 mi SW 8.1 mph - N/A   Clear
12:35 AM 39.2 °F 33.0 °F 28.4 °F 65% 30.10 in 10.0 mi SW 9.2 mph - N/A   Clear
12:55 AM 41.0 °F 34.7 °F 28.4 °F 61% 30.09 in 10.0 mi SW 10.4 mph - N/A   Clear
1:15 AM 41.0 °F 34.7 °F 30.2 °F 65% 30.09 in 10.0 mi SW 10.4 mph - N/A   Clear
1:35 AM 41.0 °F 35.2 °F 30.2 °F 65% 30.08 in 10.0 mi SW 9.2 mph - N/A   Clear
1:55 AM 41.0 °F 34.7 °F 30.2 °F 65% 30.07 in 10.0 mi SW 10.4 mph 16.1 mph N/A   Clear
2:15 AM 41.0 °F 35.2 °F 32.0 °F 70% 30.06 in 10.0 mi WSW 9.2 mph - N/A   Clear
2:35 AM 41.0 °F 35.2 °F 32.0 °F 70% 30.06 in 10.0 mi WSW 9.2 mph - N/A   Clear
2:55 AM 42.8 °F 38.0 °F 32.0 °F 66% 30.06 in 10.0 mi WSW 8.1 mph 17.3 mph N/A   Clear
3:15 AM 42.8 °F 37.5 °F 33.8 °F 70% 30.05 in 10.0 mi West 9.2 mph 16.1 mph N/A   Clear
3:35 AM 44.6 °F 38.8 °F 33.8 °F 66% 30.05 in 10.0 mi WSW 11.5 mph 19.6 mph N/A   Clear
3:55 AM 44.6 °F 39.7 °F 35.6 °F 71% 30.04 in 10.0 mi WSW 9.2 mph 20.7 mph N/A   Clear
4:15 AM 44.6 °F 39.2 °F 35.6 °F 71% 30.04 in 10.0 mi WSW 10.4 mph 20.7 mph N/A   Clear
4:35 AM 42.8 °F 37.0 °F 35.6 °F 76% 30.04 in 10.0 mi WSW 10.4 mph 17.3 mph N/A   Clear
4:55 AM 42.8 °F 37.5 °F 35.6 °F 76% 30.04 in 10.0 mi WSW 9.2 mph 18.4 mph N/A   Clear
5:15 AM 42.8 °F 36.2 °F 35.6 °F 76% 30.04 in 10.0 mi SW 12.7 mph 18.4 mph N/A   Clear
5:35 AM 42.8 °F 37.0 °F 35.6 °F 76% 30.05 in 10.0 mi WSW 10.4 mph 17.3 mph N/A   Clear
5:55 AM 42.8 °F 36.2 °F 37.4 °F 81% 30.05 in 10.0 mi WSW 12.7 mph 19.6 mph N/A   Clear
6:15 AM 42.8 °F 37.0 °F 37.4 °F 81% 30.06 in 10.0 mi WSW 10.4 mph 17.3 mph N/A   Clear
6:35 AM 42.8 °F 38.0 °F 37.4 °F 81% 30.06 in 10.0 mi WSW 8.1 mph - N/A   Clear
6:55 AM 42.8 °F 36.6 °F 37.4 °F 81% 30.07 in 10.0 mi WSW 11.5 mph - N/A   Clear
7:15 AM 42.8 °F 37.0 °F 37.4 °F 81% 30.07 in 10.0 mi WSW 10.4 mph 18.4 mph N/A   Clear
7:35 AM 42.8 °F 37.0 °F 37.4 °F 81% 30.07 in 10.0 mi WSW 10.4 mph - N/A   Clear
7:55 AM 44.6 °F 40.2 °F 37.4 °F 76% 30.08 in 10.0 mi WSW 8.1 mph - N/A   Clear
8:15 AM 44.6 °F 40.7 °F 37.4 °F 76% 30.10 in 10.0 mi West 6.9 mph - N/A   Clear
8:55 AM 48.2 °F - 35.6 °F 62% 30.12 in 10.0 mi West 6.9 mph - N/A   Clear
9:15 AM 50.0 °F - 33.8 °F 54% 30.13 in 10.0 mi West 9.2 mph 16.1 mph N/A   Clear
9:35 AM 51.8 °F - 33.8 °F 50% 30.15 in 10.0 mi West 9.2 mph 17.3 mph N/A   Clear
9:55 AM 51.8 °F - 33.8 °F 50% 30.16 in 10.0 mi West 10.4 mph - N/A   Clear
10:15 AM 53.6 °F - 32.0 °F 44% 30.16 in 10.0 mi WNW 10.4 mph 18.4 mph N/A   Clear
10:35 AM 53.6 °F - 32.0 °F 44% 30.18 in 10.0 mi NW 11.5 mph 16.1 mph N/A   Clear
10:55 AM 53.6 °F - 32.0 °F 44% 30.17 in 10.0 mi NW 9.2 mph - N/A   Clear
11:15 AM 53.6 °F - 33.8 °F 47% 30.18 in 10.0 mi NE 11.5 mph 16.1 mph N/A   Clear
11:35 AM 53.6 °F - 33.8 °F 47% 30.19 in 10.0 mi North 6.9 mph - N/A   Clear
11:55 AM 53.6 °F - 32.0 °F 44% 30.19 in 10.0 mi NE 11.5 mph 17.3 mph N/A   Clear
12:15 PM 53.6 °F - 32.0 °F 44% 30.20 in 10.0 mi North 8.1 mph 16.1 mph N/A   Clear
12:35 PM 53.6 °F - 28.4 °F 38% 30.20 in 10.0 mi NE 9.2 mph - N/A   Clear
12:55 PM 53.6 °F - 26.6 °F 35% 30.20 in 10.0 mi North 10.4 mph 16.1 mph N/A   Clear
1:15 PM 53.6 °F - 26.6 °F 35% 30.21 in 10.0 mi North 8.1 mph - N/A   Clear
1:35 PM 53.6 °F - 23.0 °F 30% 30.21 in 10.0 mi North 10.4 mph - N/A   Clear
1:55 PM 53.6 °F - 21.2 °F 28% 30.22 in 10.0 mi NE 12.7 mph 19.6 mph N/A   Clear
2:15 PM 53.6 °F - 21.2 °F 28% 30.21 in 10.0 mi NE 5.8 mph - N/A   Clear
2:35 PM 53.6 °F - 19.4 °F 26% 30.22 in 10.0 mi NE 11.5 mph 16.1 mph N/A   Clear
2:55 PM 51.8 °F - 15.8 °F 24% 30.23 in 10.0 mi NNE 12.7 mph 16.1 mph N/A   Clear
3:15 PM 51.8 °F - 12.2 °F 21% 30.24 in 10.0 mi North 11.5 mph 16.1 mph N/A   Clear
3:35 PM 51.8 °F - 12.2 °F 21% 30.24 in 10.0 mi NNE 10.4 mph - N/A   Clear
3:55 PM 51.8 °F - 10.4 °F 19% 30.25 in 10.0 mi NNE 9.2 mph 17.3 mph N/A   Clear
4:15 PM 50.0 °F - 6.8 °F 17% 30.26 in 10.0 mi North 9.2 mph 19.6 mph N/A   Clear
4:35 PM 50.0 °F - 8.6 °F 19% 30.26 in 10.0 mi NNE 10.4 mph - N/A   Clear
6:15 PM 42.8 °F 37.0 °F 17.6 °F 36% 30.34 in 10.0 mi East 10.4 mph 21.9 mph N/A   Clear
6:35 PM 41.0 °F 34.7 °F 15.8 °F 36% 30.36 in 10.0 mi ENE 10.4 mph 20.7 mph N/A   Clear
6:55 PM 39.2 °F 31.6 °F 14.0 °F 36% 30.37 in 10.0 mi ENE 12.7 mph 20.7 mph N/A   Clear
7:15 PM 37.4 °F 30.8 °F 14.0 °F 38% 30.38 in 10.0 mi ENE 9.2 mph 20.7 mph N/A   Clear
7:35 PM 37.4 °F 30.8 °F 12.2 °F 36% 30.38 in 10.0 mi ENE 9.2 mph 20.7 mph N/A   Clear
7:55 PM 35.6 °F 27.5 °F 12.2 °F 38% 30.40 in 10.0 mi ENE 11.5 mph 20.7 mph N/A   Clear
8:15 PM 35.6 °F 28.0 °F 10.4 °F 35% 30.42 in 10.0 mi ENE 10.4 mph 18.4 mph N/A   Clear
8:35 PM 33.8 °F 27.0 °F 10.4 °F 38% 30.42 in 10.0 mi ENE 8.1 mph 17.3 mph N/A   Clear
8:55 PM 33.8 °F 26.4 °F 10.4 °F 38% 30.42 in 10.0 mi East 9.2 mph 16.1 mph N/A   Clear
9:15 PM 32.0 °F 24.2 °F 10.4 °F 41% 30.44 in 10.0 mi ENE 9.2 mph - N/A   Clear
9:35 PM 32.0 °F 23.6 °F 8.6 °F 38% 30.44 in 10.0 mi ENE 10.4 mph 17.3 mph N/A   Clear
9:55 PM 32.0 °F 24.8 °F 8.6 °F 38% 30.46 in 10.0 mi ENE 8.1 mph - N/A   Clear
10:15 PM 32.0 °F 24.8 °F 8.6 °F 38% 30.46 in 10.0 mi East 8.1 mph - N/A   Clear
10:35 PM 32.0 °F 24.8 °F 8.6 °F 38% 30.46 in 10.0 mi ENE 8.1 mph - N/A   Clear
10:55 PM 32.0 °F 25.6 °F 8.6 °F 38% 30.47 in 10.0 mi East 6.9 mph - N/A   Clear
11:15 PM 32.0 °F 26.4 °F 8.6 °F 38% 30.47 in 10.0 mi ENE 5.8 mph - N/A   Clear
11:35 PM 30.2 °F 22.6 °F 8.6 °F 40% 30.47 in 10.0 mi ENE 8.1 mph - N/A   Clear
11:55 PM 30.2 °F 24.3 °F 8.6 °F 40% 30.48 in 10.0 mi ENE 5.8 mph - N/A   Clear